Location: Maiden
(35.5760°N, 81.2120°W)
Time: 16:22:58
(UTC-04:00)

Cosmos 1758 - Pass Details

Date: 14 June 2018
Orbit: 542 x 563 km, 82.5° (Epoch: 18 June)

Event Time Altitude Azimuth Distance (km) Brightness Sun altitude
Rises 21:55:11 0° 353° (N) 2,761 7.7 -13.0°
Reaches altitude 10° 21:57:23 10° 354° (N) 1,860 6.7 -13.3°
Maximum altitude 22:01:29 85° 83° (E) 569 3.3 -13.9°
Enters shadow 22:04:31 18° 172° (S) 1,423 5.0 -14.4°
